Hourly Data Report for October 19, 2014

All times are specified in Local Standard Time (LST). Add 1 hour to adjust for Daylight Saving Time where and when it is observed.

KAMLOOPS A
BRITISH COLUMBIA

50°42'09.000" N
120°26'55.000" W
345.30 m
1163781
71887
YKA

Download Data

Hourly Data (October 2014)
Hourly Data Report for October 19, 2014
Temp Definition
°C
Dew Point Temp Definition
°C
Rel Hum Definition
%
Wind Dir Definition
10's deg

Wind Spd Definition
km/h
Visibility Definition
km
Stn Press Definition
kPa
Hmdx Definition


Wind Chill Definition


Weather Definition


TIME
00:00 Legend Double Dagger 14.2 7.3 63 9 15 64.4 97.06     LegendNANA
01:00 Legend Double Dagger 13.4 7.7 68 8 15 64.4 97.14     Mostly Cloudy
02:00 Legend Double Dagger 13.3 8.0 70 7 16 64.4 97.09     LegendNANA
03:00 Legend Double Dagger 13.1 7.8 70 6 12 64.4 97.08     LegendNANA
04:00 Legend Double Dagger 13.4 7.9 69 6 11 64.4 97.01     Mostly Cloudy
05:00 Legend Double Dagger 13.4 8.1 70 5 17 64.4 96.98     LegendNANA
06:00 Legend Double Dagger 13.2 8.3 72 5 17 64.4 96.94     LegendNANA
07:00 Legend Double Dagger 13.2 8.3 72 1 19 64.4 96.90     Mostly Cloudy
08:00 Legend Double Dagger 14.0 8.2 68 4 27 64.4 96.87     LegendNANA
09:00 Legend Double Dagger 16.1 8.9 62 9 19 64.4 96.82     LegendNANA
10:00 Legend Double Dagger 17.8 9.0 56 12 18 64.4 96.74     Mostly Cloudy
11:00 Legend Double Dagger 20.2 9.0 48 10 25 64.4 96.66     LegendNANA
12:00 Legend Double Dagger 19.8 8.6 48 9 26 64.4 96.54     LegendNANA
13:00 Legend Double Dagger 20.8 8.6 45 9 23 64.4 96.42     Mainly Clear
14:00 Legend Double Dagger 23.0 7.7 37 13 18 64.4 96.32     LegendNANA
15:00 Legend Double Dagger 23.1 7.4 36 12 26 64.4 96.30     LegendNANA
16:00 Legend Double Dagger 22.4 7.6 38 13 31 64.4 96.30     Mainly Clear
17:00 Legend Double Dagger 21.6 7.2 39 13 27 64.4 96.28     LegendNANA
18:00 Legend Double Dagger 20.6 7.0 41 13 26 64.4 96.27     LegendNANA
19:00 Legend Double Dagger 20.0 6.8 42 14 28 64.4 96.28     Mainly Clear
20:00 Legend Double Dagger 19.5 6.7 43 13 27 64.4 96.28     LegendNANA
21:00 Legend Double Dagger 19.4 6.6 43 13 27 64.4 96.30     LegendNANA
22:00 Legend Double Dagger 15.7 7.5 58 8 8 64.4 96.31     Mainly Clear
23:00 Legend Double Dagger 15.8 7.4 57 5 14 64.4 96.35     LegendNANA

Notes on Data Quality.

Legend

  • E = Estimated
  • M = Missing
  • NA = Not Available
  • ‡ = Partner data that is not subject to review by the National Climate Archives
Date modified: